sat.trackr.live / text

‹ back to catalog

IRIDIUM 150

NORAD 43257 · 2018-030J

PAYLOAD ACTIVE UNKNOWN

§ Identity

Operator
Country
US
Launch date
2018-03-30
Launch site
AFWTR
Launch vehicle
Mass (kg)
RCS (m²)

Purposes: comms

External: N2YO · Heavens-Above · Gunter

§ Orbital elements

Epoch: 2026-05-25T02:59:19.377312Z

Period
100.40 min
Inclination
86.3935°
Eccentricity
0.0002049
Mean motion
14.34217698 rev/d
Perigee alt
776.2 km
Apogee alt
779.1 km
Semi-major
7,155.8 km
B*
-1.7646e-5
RAAN
300.1125°
Arg perigee
91.0347°
Mean anomaly
269.1084°
Rev number
42,685

§ Raw data

IRIDIUM 1501 43257U 18030J   26145.12452983 -.00000030  00000+0 -17646-4 0  99972 43257  86.3935 300.1125 0002049  91.0347 269.1084 14.34217698426858

JSON: /api/v1/satellites/43257 · /tle

For live sub-satellite position, see the globe view (requires WebGL).

§ Visibility from observer

Set your observer location to see the next 7 days of passes ≥ 10°. The values pass through the URL so the page stays shareable.

No JS? Fill the form by hand. The geolocation button needs JavaScript.